Wind_Speed
17 17 16 16 15 15 15 15 14 14 13 14 15 15 15 15 15 16 16 17 17 16 16 15 14 14 13 12 12 12 13 13 13 14 14 14 14 14 14 14 14 15
17 17 17 17 16 16 16 16 16 15 14 14 15 16 16 16 16 17 18 18 18 18 18 17 16 15 14 13 13 13 13 13 14 14 14 15 15 15 15 15 16 17
18 18 18 18 17 17 17 17 17 17 16 15 15 16 17 17 17 18 19 20 20 20 19 18 18 17 16 15 15 14 14 14 14 15 15 15 15 16 16 17 18 18
17 18 18 18 18 18 18 18 18 18 17 17 16 16 17 18 19 19 20 21 21 21 21 20 20 19 18 17 17 16 16 16 16 16 16 16 16 16 17 18 18 19
17 17 18 18 18 19 19 20 20 19 19 18 18 17 18 19 20 20 21 21 22 22 22 22 22 21 20 20 19 19 18 18 17 17 17 17 17 17 18 18 19 20
17 17 18 18 19 19 20 21 21 20 20 20 19 19 19 19 20 21 22 22 23 23 24 24 24 23 23 22 21 21 20 20 19 19 19 19 19 19 19 19 20 21
18 18 18 18 19 20 21 22 22 22 21 20 20 20 20 20 21 21 22 23 24 24 25 25 25 25 25 24 24 23 23 22 22 21 21 20 20 21 21 21 21 22
21 20 19 19 19 20 21 22 23 23 22 21 21 21 21 22 22 22 22 23 24 25 26 26 26 27 26 26 26 25 25 24 24 24 23 23 23 23 23 23 23 24
23 23 22 20 19 20 21 22 23 23 23 23 22 22 22 23 23 23 23 24 25 25 26 27 27 27 28 28 27 27 27 26 26 26 25 25 25 25 25 25 25 26
23 23 24 23 22 21 21 22 23 23 23 24 24 23 23 24 24 24 24 25 25 26 27 27 27 28 28 28 28 28 28 28 28 27 27 27 27 27 27 27 27 28
22 22 23 24 25 24 23 22 22 23 23 24 24 25 25 25 25 25 25 26 26 27 27 27 27 28 28 29 29 29 29 29 29 29 29 29 29 29 29 29 29 29
23 22 22 23 24 25 25 24 23 23 23 24 25 26 26 26 26 26 26 27 27 27 27 27 28 28 29 30 30 30 30 30 30 31 31 31 30 30 30 30 30 30
26 25 24 23 23 24 25 25 25 25 25 25 25 26 27 27 28 28 28 28 28 28 28 28 28 29 29 31 31 31 32 32 32 32 32 32 32 31 31 31 32 32
28 28 27 25 24 23 24 25 25 26 26 26 26 26 27 28 29 29 29 29 29 29 29 30 29 29 30 31 32 32 32 32 32 32 33 33 33 33 33 33 33 33
29 29 28 27 25 24 24 24 25 26 26 26 27 28 28 29 30 30 30 30 30 30 31 31 31 31 32 32 33 33 33 33 33 33 33 34 34 34 34 34 34 34
29 29 29 28 27 25 24 24 25 25 25 26 27 28 29 30 30 30 31 31 31 31 32 32 32 32 33 34 33 33 33 33 34 34 34 34 35 35 35 35 35 35
29 29 29 28 27 26 26 26 26 25 24 25 26 28 30 31 31 31 31 32 33 33 32 32 33 34 35 35 35 34 35 35 35 35 35 35 35 35 35 35 36 37
30 31 31 29 28 28 27 26 26 25 24 25 26 27 28 30 31 31 32 33 34 34 34 34 34 35 36 35 35 36 36 36 36 36 36 36 36 35 35 36 37 38
30 31 33 32 30 30 29 27 26 25 25 25 26 26 26 27 30 31 32 33 34 34 35 35 35 36 36 36 36 37 37 37 37 37 37 37 36 36 36 37 38 39
29 30 31 31 31 30 30 29 27 27 26 26 27 27 26 25 27 29 31 33 34 35 35 36 36 37 37 37 37 37 38 38 37 37 37 37 36 36 37 39 39 40
28 28 29 29 29 30 30 30 30 30 30 30 30 29 27 25 25 26 28 31 32 34 35 36 37 39 39 39 38 38 39 39 38 37 37 36 35 36 37 39 39 40
23 24 25 25 25 26 28 29 30 30 30 31 31 29 28 26 26 26 27 29 31 32 33 34 36 39 41 40 39 39 40 41 39 38 37 36 35 36 37 38 39 40
20 20 21 21 21 23 24 26 28 28 28 29 29 29 29 28 27 28 28 28 29 30 31 31 33 37 39 39 39 40 41 42 41 40 39 37 36 35 36 37 39 40
21 21 21 20 21 21 22 25 26 26 26 28 28 28 28 29 29 29 29 29 29 30 31 31 31 33 36 37 37 39 41 41 41 40 39 37 36 36 36 38 39 40
22 23 23 23 22 22 22 23 24 25 26 27 28 28 28 29 30 30 30 29 30 31 33 33 31 32 35 36 36 38 39 40 40 41 39 37 36 37 37 38 40 40
24 24 24 24 25 24 24 24 24 25 26 26 28 29 30 30 31 32 32 31 31 31 33 34 33 33 35 37 38 38 40 40 41 42 41 39 39 39 39 38 38 39
Wind_Direction
273 270 268 267 267 267 266 266 264 261 262 263 257 251 248 250 251 248 244 242 243 244 247 251 255 259 266 272 279 284 288 289 289 288 288 287 285 282 280 279 280 283
277 272 267 264 264 265 265 264 262 260 258 260 260 255 251 250 251 251 248 245 244 245 249 252 255 259 265 271 276 281 285 287 288 288 287 286 285 283 281 281 281 283
280 276 269 263 261 262 263 262 260 258 256 256 258 257 255 252 251 252 251 249 248 248 251 254 257 260 265 269 274 278 282 284 285 285 285 285 284 283 283 282 283 285
282 280 274 266 260 260 261 260 259 257 255 255 256 257 257 255 252 252 252 252 252 251 253 256 259 261 264 268 272 275 279 281 282 282 281 282 282 282 282 283 283 285
284 284 281 273 265 260 260 260 258 257 255 254 255 256 256 256 255 254 253 252 253 253 254 256 259 261 264 267 270 273 275 278 279 280 279 279 279 279 280 280 282 283
285 284 283 279 271 264 261 260 258 257 256 254 254 255 256 256 256 255 254 254 254 254 255 256 258 260 262 265 267 270 272 275 277 278 278 278 277 277 277 278 280 282
287 284 282 280 276 268 264 261 260 258 258 257 256 256 257 257 257 257 257 256 255 255 256 256 257 259 261 263 265 268 270 273 275 277 278 278 277 277 277 278 279 281
292 287 282 279 277 272 267 264 262 261 260 259 258 257 257 258 259 259 258 258 257 257 257 257 257 258 260 261 263 266 268 271 273 276 278 278 278 277 277 278 279 281
296 292 287 282 278 274 270 266 264 263 262 261 260 259 258 258 260 261 260 260 259 259 259 259 259 260 261 262 263 265 267 269 272 274 276 278 279 279 279 278 279 280
297 295 292 287 281 276 271 267 265 263 263 262 261 260 259 258 259 260 261 261 261 261 262 262 263 263 263 264 265 266 267 269 270 272 274 277 279 280 280 279 279 279
293 293 292 290 286 280 273 269 266 263 262 262 261 261 260 259 259 259 260 261 262 263 264 265 265 266 266 266 267 267 268 269 270 272 273 275 277 279 280 279 279 280
291 290 290 290 289 284 278 272 267 264 262 260 259 259 260 260 260 259 258 259 261 263 264 265 266 266 267 267 267 268 268 268 269 270 272 273 275 277 278 278 279 280
290 288 288 287 287 285 282 276 270 265 262 260 259 258 259 259 259 258 257 257 259 261 263 264 265 266 267 267 267 267 267 268 269 270 271 273 273 275 276 277 278 279
285 285 286 284 283 282 280 277 273 269 265 262 260 259 258 259 258 258 258 258 258 259 260 262 263 265 265 266 266 267 267 268 269 270 271 272 273 274 275 276 278 279
281 283 284 283 281 279 277 276 275 274 272 268 264 261 259 259 259 259 259 259 259 258 258 259 261 262 263 264 266 267 269 270 271 271 272 272 273 274 275 277 278 278
280 282 282 281 279 277 274 274 274 275 276 275 270 265 262 261 260 260 259 259 259 258 258 259 260 261 262 263 266 268 269 270 271 271 271 272 273 274 275 277 277 278
279 278 277 275 275 275 275 275 274 274 276 277 276 272 267 264 263 261 260 259 259 259 260 260 260 261 262 263 265 267 268 269 270 270 271 272 273 274 275 276 277 278
279 277 275 274 272 273 275 276 277 278 278 278 278 275 272 269 267 264 262 262 261 261 261 260 260 261 262 263 265 266 267 268 268 269 271 272 273 275 276 277 278 279
285 280 275 273 272 272 273 273 275 277 276 276 276 276 275 273 270 267 266 265 264 263 262 262 262 262 263 264 265 266 267 268 269 270 271 273 275 277 278 279 280 281
290 284 277 273 273 275 276 275 274 273 273 273 274 275 275 272 271 271 271 270 269 268 266 265 264 264 264 264 265 266 267 269 270 271 272 274 276 278 278 279 280 281
294 292 286 278 275 274 275 276 275 274 273 272 273 275 276 274 272 272 272 273 272 271 270 268 267 265 265 265 266 267 268 269 269 270 271 273 274 275 276 277 279 279
300 300 296 289 281 275 274 276 276 275 274 273 274 277 278 277 276 273 270 270 270 271 271 271 269 268 268 268 268 269 270 270 270 270 270 271 271 273 275 276 277 278
304 304 302 298 291 284 281 280 278 276 274 274 276 277 278 277 276 274 272 270 269 269 270 270 270 270 270 270 270 271 271 272 272 273 272 272 273 274 274 274 275 275
302 304 302 300 296 292 288 285 282 280 277 277 278 279 279 277 274 273 273 273 271 268 266 265 265 268 270 270 270 270 271 272 273 274 273 274 274 273 272 271 272 273
298 300 301 300 300 299 296 293 291 289 287 284 282 280 280 279 277 274 272 271 272 270 268 266 264 264 266 268 269 269 270 271 272 273 274 274 273 272 271 271 273 274
294 295 297 298 299 299 300 299 298 295 291 288 284 282 281 280 278 277 273 270 269 270 270 269 267 264 264 266 267 268 269 270 271 272 274 274 273 273 273 274 274 275
Height
5780 5781 5781 5782 5782 5782 5783 5783 5784 5784 5784 5784 5784 5784 5784 5784 5784 5785 5785 5785 5786 5786 5786 5786 5786 5786 5786 5786 5786 5786 5786 5786 5786 5785 5785 5785 5785 5784 5784 5784 5784 5783
5778 5778 5779 5780 5780 5781 5781 5782 5782 5782 5782 5782 5782 5782 5783 5783 5783 5783 5784 5784 5784 5784 5785 5785 5785 5785 5784 5784 5784 5784 5784 5784 5784 5784 5783 5783 5783 5783 5783 5783 5782 5782
5776 5776 5777 5777 5778 5779 5779 5780 5780 5780 5780 5780 5781 5781 5781 5781 5781 5782 5782 5782 5782 5783 5783 5783 5783 5783 5783 5782 5782 5782 5782 5782 5782 5782 5782 5781 5781 5781 5781 5781 5781 5781
5775 5775 5775 5775 5776 5777 5777 5777 5778 5778 5778 5778 5778 5779 5779 5779 5780 5780 5780 5780 5780 5781 5781 5781 5781 5781 5781 5780 5780 5780 5780 5780 5780 5780 5780 5779 5779 5779 5779 5779 5779 5779
5773 5773 5773 5773 5774 5774 5775 5775 5775 5776 5776 5776 5776 5777 5777 5777 5778 5778 5778 5778 5778 5778 5779 5779 5779 5779 5779 5778 5778 5778 5778 5778 5778 5778 5778 5777 5777 5777 5777 5777 5777 5776
5771 5771 5771 5771 5771 5772 5772 5772 5773 5773 5773 5774 5774 5774 5775 5775 5775 5775 5776 5776 5776 5776 5776 5776 5776 5776 5776 5776 5776 5776 5776 5776 5776 5775 5775 5775 5775 5775 5775 5775 5774 5774
5769 5769 5769 5769 5769 5769 5770 5770 5770 5771 5771 5771 5771 5772 5772 5772 5772 5773 5773 5773 5773 5773 5773 5773 5773 5773 5773 5773 5773 5774 5774 5774 5773 5773 5773 5773 5773 5773 5773 5772 5772 5771
5767 5767 5766 5766 5766 5766 5767 5767 5767 5768 5768 5769 5769 5769 5769 5769 5770 5770 5770 5771 5771 5771 5770 5770 5770 5770 5770 5771 5771 5771 5771 5771 5771 5771 5771 5771 5770 5770 5770 5770 5769 5769
5765 5765 5765 5764 5764 5764 5764 5764 5764 5765 5765 5766 5766 5766 5766 5766 5767 5767 5768 5768 5768 5768 5768 5768 5768 5768 5768 5768 5768 5768 5768 5768 5768 5768 5768 5768 5768 5767 5767 5767 5766 5765
5762 5763 5763 5762 5761 5761 5761 5761 5761 5761 5762 5762 5762 5763 5763 5763 5763 5764 5764 5765 5765 5765 5765 5765 5765 5765 5765 5765 5765 5765 5765 5765 5765 5765 5765 5764 5764 5764 5764 5763 5763 5762
5759 5759 5760 5760 5759 5759 5758 5758 5758 5757 5758 5758 5759 5759 5759 5759 5760 5760 5761 5761 5761 5762 5762 5762 5762 5762 5762 5762 5762 5762 5762 5762 5762 5761 5761 5761 5761 5760 5760 5760 5759 5758
5756 5756 5756 5756 5757 5756 5756 5755 5755 5754 5754 5754 5754 5755 5755 5756 5756 5757 5757 5757 5757 5758 5758 5759 5759 5759 5759 5759 5759 5758 5758 5758 5758 5758 5757 5757 5756 5756 5756 5755 5755 5755
5753 5752 5752 5752 5753 5753 5754 5753 5752 5751 5750 5750 5750 5751 5751 5752 5752 5752 5753 5753 5753 5754 5755 5755 5755 5755 5755 5755 5755 5755 5754 5754 5754 5753 5753 5753 5752 5752 5752 5751 5751 5751
5749 5749 5749 5749 5749 5750 5750 5750 5749 5748 5747 5746 5746 5747 5747 5747 5748 5748 5749 5749 5749 5750 5750 5750 5751 5751 5751 5751 5750 5750 5750 5750 5750 5749 5749 5748 5748 5748 5747 5747 5747 5746
5746 5746 5745 5745 5745 5746 5746 5746 5746 5745 5745 5744 5744 5743 5743 5743 5743 5744 5744 5745 5745 5745 5745 5746 5746 5747 5746 5746 5746 5746 5746 5746 5745 5745 5744 5744 5743 5743 5743 5743 5742 5742
5742 5742 5742 5741 5741 5742 5742 5742 5743 5743 5742 5742 5741 5740 5739 5739 5739 5740 5740 5740 5740 5740 5741 5741 5742 5742 5741 5741 5742 5742 5742 5741 5741 5740 5740 5739 5739 5739 5739 5739 5738 5737
5739 5738 5738 5737 5737 5738 5738 5738 5739 5739 5740 5739 5738 5737 5736 5735 5735 5736 5736 5735 5735 5736 5736 5737 5737 5737 5737 5737 5737 5737 5737 5737 5737 5736 5736 5735 5735 5735 5735 5734 5734 5733
5736 5735 5735 5735 5735 5735 5735 5735 5736 5736 5737 5736 5735 5734 5733 5732 5732 5732 5732 5731 5731 5732 5732 5733 5733 5732 5732 5732 5732 5732 5732 5732 5732 5732 5732 5732 5732 5732 5731 5730 5729 5728
5734 5733 5732 5731 5731 5731 5730 5731 5731 5732 5732 5732 5731 5730 5729 5729 5728 5728 5728 5728 5728 5729 5729 5729 5729 5728 5728 5728 5728 5727 5727 5727 5728 5728 5728 5728 5728 5728 5727 5726 5725 5724
5731 5730 5729 5729 5728 5727 5726 5726 5727 5727 5727 5727 5726 5726 5726 5725 5725 5724 5725 5725 5725 5725 5726 5726 5726 5725 5723 5723 5723 5723 5722 5722 5723 5724 5723 5724 5724 5723 5722 5721 5720 5719
5727 5726 5726 5725 5725 5724 5723 5723 5723 5723 5723 5722 5722 5722 5722 5722 5721 5721 5721 5721 5721 5721 5722 5722 5722 5720 5718 5719 5719 5718 5718 5717 5718 5719 5719 5719 5719 5718 5716 5715 5714 5713
5725 5724 5723 5722 5722 5721 5720 5720 5720 5719 5718 5718 5718 5719 5719 5718 5718 5717 5716 5716 5716 5717 5718 5718 5718 5715 5714 5714 5714 5714 5713 5712 5713 5714 5714 5714 5714 5713 5711 5710 5709 5708
5722 5721 5720 5719 5719 5718 5718 5717 5715 5715 5714 5714 5714 5714 5714 5714 5714 5713 5712 5712 5712 5712 5713 5714 5713 5711 5709 5709 5710 5709 5707 5707 5708 5708 5709 5710 5710 5709 5707 5705 5704 5703
5720 5718 5717 5716 5716 5715 5714 5713 5712 5711 5711 5710 5710 5710 5710 5709 5709 5709 5709 5708 5708 5708 5708 5708 5709 5707 5705 5704 5705 5703 5702 5701 5702 5702 5703 5705 5705 5704 5702 5700 5699 5698
5717 5716 5715 5714 5712 5712 5711 5711 5709 5708 5707 5707 5706 5705 5705 5705 5704 5704 5705 5705 5704 5703 5703 5703 5704 5703 5701 5699 5699 5698 5696 5696 5696 5695 5697 5698 5698 5697 5697 5696 5695 5694
5715 5713 5712 5711 5710 5709 5708 5708 5707 5705 5704 5703 5702 5701 5701 5701 5700 5700 5700 5700 5700 5699 5699 5699 5699 5699 5697 5694 5693 5692 5691 5690 5689 5689 5691 5692 5692 5691 5691 5691 5690 5689